Temperature
23 22 21 22 24 26 28 30 30 29 29 29 29 28 27 26 25 22 21 21 20 20 20 20 19 19 19 19 19 19 19 19 19 18 18 18 18 18 18 18 18 18 18 18 18 18 18 18 19
22 22 22 24 26 27 29 30 30 29 29 29 28 28 26 25 23 22 21 21 20 20 19 19 19 19 19 19 19 19 18 18 18 18 18 18 18 18 18 18 18 18 18 18 18 18 18 18 18
23 23 24 27 28 28 29 30 30 30 30 29 28 27 25 24 23 22 21 21 20 20 20 19 19 19 19 19 19 19 19 18 18 18 18 18 18 18 18 18 18 18 18 18 18 18 18 18 18
23 25 26 28 29 30 31 31 31 30 30 29 28 26 24 23 23 22 21 21 20 20 19 19 19 19 19 19 19 19 19 18 18 18 18 18 18 18 18 18 18 18 18 18 18 18 18 18 18
24 27 28 29 30 31 32 31 31 30 30 29 27 25 23 23 22 22 22 21 21 20 19 20 19 19 19 19 19 19 19 19 19 18 18 18 18 18 18 18 18 18 18 18 18 18 18 18 18
27 29 29 29 30 31 32 31 31 30 30 28 27 25 23 23 22 22 22 21 21 20 19 20 19 19 19 19 19 19 19 19 19 18 18 18 18 18 18 18 18 18 18 18 18 18 18 19 19
29 30 30 30 30 31 31 31 31 31 30 29 28 26 24 23 22 22 22 21 21 20 19 19 19 19 19 19 19 19 19 19 19 19 18 18 18 18 18 18 18 18 18 18 18 19 19 19 19
30 30 30 30 31 30 31 31 31 30 29 29 28 26 24 23 22 22 21 21 21 20 20 19 19 19 19 19 19 19 19 19 19 19 19 19 19 18 19 19 19 19 19 19 19 19 19 19 19
31 30 30 31 31 31 32 31 31 30 29 29 28 26 24 23 23 22 22 21 20 20 20 20 19 19 19 18 18 18 19 19 19 18 18 18 18 18 18 19 19 19 19 19 19 19 19 19 19
31 30 31 32 33 32 32 32 31 30 29 28 26 25 24 23 23 23 22 21 21 20 20 20 19 19 19 19 18 18 18 18 18 18 18 18 18 18 18 19 19 19 19 19 19 19 19 19 19
32 31 33 33 33 33 32 32 31 30 29 28 26 25 24 23 23 23 22 22 21 20 20 20 19 19 19 19 19 18 18 18 18 18 18 18 18 18 18 19 19 19 19 19 19 19 19 19 19
34 34 34 34 33 33 32 32 31 30 30 28 26 25 24 24 24 23 23 22 21 20 20 20 19 19 19 19 19 19 18 18 18 18 18 18 18 18 18 18 19 19 19 19 19 19 18 19 19
34 34 34 34 33 33 32 32 31 30 29 28 27 26 25 24 24 23 22 22 21 20 20 20 19 19 19 19 19 19 19 19 18 18 18 18 18 18 18 18 19 19 19 19 19 18 19 19 19
34 34 34 34 34 33 32 32 31 30 29 28 27 26 25 25 24 23 23 22 21 20 20 20 19 19 19 19 19 19 19 19 19 18 18 18 18 18 18 18 18 19 19 19 18 19 19 19 19
34 34 33 34 34 33 32 31 31 30 29 28 27 26 26 25 24 23 23 22 21 20 20 20 19 19 19 19 19 19 19 19 19 18 18 18 18 18 18 18 18 18 19 19 19 19 19 19 19
34 33 31 33 34 33 32 29 30 29 29 28 27 26 26 25 24 24 23 22 21 20 20 20 19 19 19 19 19 19 19 19 19 18 18 19 18 18 18 18 18 18 18 19 19 19 19 19 19
34 32 32 33 34 34 33 31 31 30 30 29 28 27 26 25 24 24 23 22 21 21 20 20 20 19 19 19 19 19 19 19 19 19 19 19 19 19 18 18 18 18 18 19 19 19 19 18 19
33 33 33 33 34 34 33 32 31 31 30 29 28 27 26 25 25 24 23 22 21 21 20 20 20 19 19 19 19 19 19 19 19 19 19 19 19 18 19 18 18 18 18 18 19 19 19 18 18
34 33 33 34 35 34 33 32 31 31 31 30 29 28 27 26 25 24 23 22 21 21 20 20 20 19 19 19 19 19 19 19 19 19 19 19 19 18 19 18 19 18 18 18 19 19 18 18 18
34 33 34 35 35 34 33 32 32 31 31 30 29 28 27 26 25 24 23 22 21 21 20 20 20 19 19 19 19 19 19 19 19 19 19 19 19 19 18 19 18 18 18 18 19 19 18 18 18
34 34 34 34 34 34 32 31 31 31 31 30 30 29 28 26 25 24 23 22 22 21 20 20 20 19 19 19 19 19 19 19 19 19 19 19 19 19 19 19 18 18 18 18 18 19 19 18 18
33 35 34 34 33 32 32 30 31 31 31 31 30 29 28 27 26 24 23 23 22 21 20 20 20 20 20 19 19 19 19 19 19 19 19 19 19 19 19 19 18 18 18 18 18 18 18 18 18
34 35 34 34 33 33 33 31 31 32 30 31 30 29 28 27 26 25 24 23 22 22 21 20 20 20 20 19 19 19 19 19 19 19 19 19 19 19 19 18 18 18 18 18 18 18 18 18 18
35 34 34 34 33 31 32 31 30 31 31 31 30 29 28 27 26 25 24 23 23 22 21 21 20 20 20 20 19 19 19 19 19 19 19 19 19 19 19 18 18 18 18 18 18 18 18 18 18
34 33 31 31 31 31 33 32 30 31 32 31 31 29 28 27 26 25 24 23 23 22 22 21 21 20 20 20 19 19 19 19 19 19 19 19 19 19 19 19 19 18 18 18 18 18 18 18 18
33 33 31 30 30 31 32 31 31 32 31 31 31 30 28 27 26 25 24 23 23 22 22 21 21 20 20 19 19 19 19 19 19 19 19 19 19 19 19 19 19 19 18 18 18 18 18 18 18
33 33 34 32 31 30 30 31 31 32 31 31 30 30 29 28 27 25 24 23 22 22 22 21 21 20 20 19 19 19 19 19 19 19 19 19 19 19 19 19 19 19 18 18 18 18 18 18 18
34 33 33 31 29 29 30 30 30 30 30 30 30 29 28 27 26 25 24 23 23 22 21 21 21 20 20 19 19 19 19 19 19 19 19 19 19 19 19 19 18 18 18 18 18 18 18 18 18
33 33 32 32 31 30 29 30 31 30 30 30 30 29 28 27 26 25 24 23 23 22 21 21 20 20 20 19 19 19 19 19 19 19 19 19 19 19 19 19 18 18 18 18 18 18 18 18 18
33 33 32 31 30 30 30 30 32 30 30 30 29 28 27 27 26 25 24 23 23 22 21 21 20 20 19 19 19 19 19 19 18 18 18 18 18 18 18 18 18 18 18 18 18 18 18 17 17
Wind_Speed
9 11 9 5 4 0 11 14 15 13 13 14 14 14 17 16 12 10 8 12 14 14 15 15 15 15 15 15 15 15 15 15 15 16 15 15 15 15 15 14 14 14 14 14 14 13 13 13 12
9 9 7 4 1 7 12 14 15 13 12 13 15 17 17 16 14 11 10 12 14 14 15 16 16 16 16 15 15 15 15 15 15 15 15 15 15 14 14 14 14 13 13 13 13 13 12 11 10
10 10 5 2 7 11 13 13 13 13 12 13 15 16 12 11 12 9 11 13 14 14 16 17 17 16 16 15 15 15 15 15 14 14 14 14 14 14 13 13 13 13 12 12 12 12 11 10 9
6 5 3 3 11 13 14 13 12 13 12 13 13 12 12 11 11 13 14 14 15 15 17 17 17 17 16 16 15 15 15 14 13 13 13 13 13 13 13 13 12 12 12 11 11 11 10 9 8
7 3 2 8 13 15 13 12 12 13 13 14 15 15 13 13 15 15 13 13 14 15 15 17 17 17 16 15 15 14 14 13 12 12 12 12 12 12 12 12 12 11 10 10 10 10 9 8 7
4 2 5 10 13 14 13 12 13 14 13 14 16 15 11 12 14 14 13 12 14 15 15 16 16 16 15 15 14 14 13 12 12 12 11 11 11 11 11 11 10 10 9 9 8 8 8 7 6
4 2 7 11 12 13 12 11 11 12 12 11 13 14 11 12 13 13 13 12 13 14 14 13 14 14 14 14 13 13 13 12 12 11 11 11 11 11 10 10 10 9 8 8 7 7 7 6 6
2 3 9 10 11 12 11 11 11 12 11 10 10 11 12 13 13 14 13 12 12 11 11 11 12 12 12 12 13 12 12 12 11 10 10 10 10 10 10 10 9 8 8 7 7 6 7 7 7
2 5 7 8 9 10 10 10 11 12 12 12 13 15 17 17 15 14 13 12 11 10 9 9 9 9 10 10 12 12 12 11 10 9 9 9 8 9 9 9 10 9 8 7 7 7 8 8 8
5 5 8 7 9 9 10 9 9 10 12 13 16 17 18 15 14 13 13 13 12 10 9 7 8 7 7 8 9 9 9 9 8 7 8 7 7 7 9 11 10 9 8 7 8 8 9 9 8
7 7 8 8 10 9 9 8 8 9 10 13 16 18 17 15 13 12 12 11 12 10 8 8 7 6 5 5 6 5 6 6 6 6 5 6 5 6 8 7 8 8 9 7 8 9 8 7 6
6 7 8 8 9 8 8 8 9 10 11 14 16 18 16 15 13 12 12 12 12 10 8 8 7 5 4 4 4 4 5 5 5 6 4 4 3 3 4 4 5 6 5 5 5 5 5 4 3
4 6 6 7 7 8 8 8 9 12 12 15 17 16 15 14 12 12 11 11 11 10 9 8 7 6 4 3 2 4 4 5 6 6 3 2 2 2 2 2 2 3 3 3 2 2 2 2 2
3 3 4 6 6 8 9 7 8 11 14 15 15 14 14 13 12 12 12 11 11 9 9 8 8 6 4 3 2 2 4 4 5 5 5 3 3 2 2 1 1 1 1 2 2 2 2 1 1
1 1 2 2 3 6 7 6 6 10 13 13 14 13 13 12 12 12 12 12 12 10 9 8 8 8 5 4 3 3 4 5 4 4 5 4 3 3 2 1 1 1 1 1 1 1 1 2 1
5 2 1 2 2 4 5 5 7 8 12 12 12 12 12 11 12 11 12 12 12 11 9 7 7 8 6 4 3 3 4 4 4 4 5 4 3 4 2 1 1 1 1 1 1 0 0 0 0
6 3 2 3 2 2 3 6 10 9 11 11 12 12 12 11 11 11 12 12 11 10 9 8 6 7 6 5 4 3 2 3 3 4 4 5 4 4 2 1 1 2 1 1 1 2 0 0 1
4 4 1 1 1 1 4 6 9 8 10 11 11 12 12 12 12 12 11 12 11 10 9 8 7 6 5 4 3 2 3 3 3 3 4 5 4 4 3 2 2 1 1 0 0 1 0 1 2
6 7 5 2 2 1 3 4 7 8 8 10 11 11 11 12 12 12 12 12 12 10 8 7 7 6 5 4 4 3 3 3 3 3 5 5 4 4 3 2 2 2 2 2 1 1 2 2 2
8 10 6 3 2 1 2 3 5 7 8 9 10 11 11 12 12 12 12 12 12 11 9 8 7 7 6 4 4 3 3 3 3 2 4 5 4 4 5 3 2 2 2 2 2 2 2 2 2
10 8 7 6 6 4 2 3 6 7 8 9 9 10 11 12 13 13 12 12 12 12 11 9 8 7 7 5 4 3 3 3 3 3 3 4 5 5 4 4 3 2 2 2 3 3 3 2 2
10 7 8 9 9 7 6 4 6 8 8 9 9 9 10 10 12 14 13 12 12 12 11 9 9 8 7 6 6 6 5 4 4 3 3 4 5 5 5 4 4 3 2 2 3 3 3 3 3
11 10 10 13 12 11 8 5 3 6 8 9 9 9 9 9 10 13 14 13 11 11 11 10 9 8 8 7 6 5 5 4 4 4 4 4 4 4 4 4 3 2 2 2 2 1 2 2 3
10 12 13 13 12 11 8 6 4 4 6 8 9 9 9 10 10 10 12 11 10 10 10 10 10 9 8 8 7 5 5 4 4 4 4 4 3 4 5 5 4 3 3 3 2 2 3 3 3
9 10 8 8 8 7 6 6 3 3 3 6 9 9 9 9 10 9 9 10 9 9 9 9 9 9 9 9 8 7 6 5 5 4 4 5 4 4 5 5 4 3 3 3 3 2 3 3 4
10 11 9 9 9 8 7 4 4 6 5 5 7 9 10 10 9 9 9 8 8 8 8 8 9 8 9 9 8 7 7 6 5 5 4 4 4 3 4 5 4 4 4 5 3 4 4 4 4
11 10 12 11 12 11 6 3 2 6 6 5 7 7 8 8 8 8 8 8 7 6 6 7 7 8 8 8 8 7 7 6 5 4 5 4 4 4 4 5 5 5 5 4 4 4 4 4 4
11 11 8 9 8 10 7 6 3 5 5 3 5 6 6 6 7 7 7 7 7 7 6 5 4 6 6 6 6 7 6 6 5 5 4 4 4 4 3 4 4 4 5 5 5 5 5 4 5
9 10 9 8 9 10 8 3 4 5 5 4 3 6 6 6 5 6 6 6 7 6 5 5 4 4 4 4 5 4 5 6 6 5 5 5 4 4 4 4 5 5 5 5 5 6 5 5 5
11 11 10 9 9 11 11 4 4 5 3 3 3 6 6 6 4 4 5 5 6 6 6 5 5 4 3 2 3 4 4 5 6 6 5 5 5 5 5 4 5 6 5 5 6 6 6 5 6
Wind_Direction
198 213 219 240 249 152 66 70 72 67 63 60 61 66 62 54 66 88 101 100 104 106 111 106 105 106 107 108 108 108 107 107 105 105 105 107 108 109 112 114 115 114 115 115 116 117 117 119 123
221 224 230 239 277 70 69 73 74 74 76 76 70 69 69 66 76 94 100 104 106 107 109 107 108 108 108 109 109 109 109 108 107 105 106 108 110 111 113 114 116 116 116 117 117 119 120 123 129
242 246 253 226 60 69 75 75 81 84 81 80 75 64 62 74 81 98 112 112 105 103 107 111 112 110 109 109 109 109 108 107 108 108 109 110 110 111 112 114 117 117 116 116 118 120 122 125 132
240 238 241 63 69 72 79 83 87 85 77 76 80 76 71 73 93 108 114 111 106 108 111 115 115 113 112 110 110 110 109 108 108 111 112 112 112 111 112 113 115 117 119 118 118 121 122 124 129
241 262 87 68 72 76 75 79 84 82 78 80 84 89 86 89 102 109 110 109 110 107 110 118 118 116 115 114 113 114 113 111 112 112 114 116 116 114 114 114 116 117 120 121 121 125 125 130 140
245 232 73 77 78 78 78 77 80 84 87 93 97 97 95 107 108 108 106 104 105 108 109 116 121 120 119 119 118 120 117 115 117 116 118 120 119 117 117 118 119 119 120 123 127 132 137 146 159
262 29 82 89 85 81 80 77 78 85 82 88 102 102 111 113 113 112 107 101 104 110 115 119 122 123 123 125 126 126 125 123 124 124 124 125 127 127 125 125 124 125 125 129 136 143 154 167 184
311 36 70 79 86 87 89 84 79 85 86 91 100 106 123 126 125 117 113 109 105 110 115 121 125 127 130 131 133 134 133 131 132 135 137 137 138 140 139 138 136 138 139 145 153 163 175 187 202
34 69 71 76 89 96 96 93 96 98 91 80 81 104 124 131 128 125 121 116 113 113 117 124 126 132 136 133 133 139 140 139 142 151 158 161 161 156 152 139 146 153 158 164 173 185 193 198 213
89 82 85 90 94 98 99 99 104 105 105 101 100 110 125 133 135 133 129 128 125 124 125 124 125 130 135 134 135 146 143 147 157 158 169 179 166 150 135 142 155 163 171 180 190 198 204 209 210
91 85 84 86 93 103 103 101 99 103 110 119 125 130 136 139 141 135 131 129 129 130 129 126 117 114 118 122 139 138 129 144 151 145 152 150 146 140 134 150 163 177 185 196 190 203 211 215 208
76 74 81 82 88 95 91 89 88 91 107 122 131 138 142 146 144 141 136 134 132 130 130 124 115 104 97 111 126 140 138 148 140 143 159 150 147 138 141 152 162 176 186 190 190 205 199 209 208
55 79 91 103 101 98 94 92 98 102 110 118 131 140 145 147 145 135 130 132 131 132 132 126 117 105 105 111 157 143 138 139 134 138 137 137 122 120 132 133 166 185 177 175 202 201 158 185 207
63 77 89 107 110 115 105 98 97 113 123 129 138 145 152 149 146 139 139 138 135 138 138 133 132 129 129 136 153 128 135 132 131 135 137 148 128 111 119 141 168 224 168 183 192 190 158 196 202
298 112 58 101 116 111 95 91 99 124 131 137 143 149 151 151 148 147 147 147 145 146 143 145 148 143 146 155 168 156 155 148 142 143 145 152 136 128 142 155 166 249 236 199 220 221 181 198 195
256 209 147 190 156 125 111 108 122 134 139 142 148 151 152 152 152 151 150 151 147 148 148 156 155 150 154 159 168 167 158 143 149 154 152 153 144 143 157 172 181 213 239 183 205 220 266 15 247
259 249 190 189 185 174 133 131 141 153 147 148 154 156 156 158 159 155 156 153 148 148 152 156 152 149 161 168 175 175 146 141 151 157 154 165 169 156 176 190 185 203 206 208 223 115 96 277 265
311 317 317 215 176 220 111 123 142 154 152 152 155 157 161 165 165 159 158 153 149 149 154 157 157 156 166 169 174 171 166 160 160 160 156 163 182 180 200 181 173 183 184 192 104 99 216 255 250
300 294 287 262 174 181 116 138 149 158 160 156 157 160 164 166 163 160 160 156 153 154 154 158 163 164 174 174 180 181 182 175 174 175 164 164 183 192 205 209 165 198 205 202 205 181 234 242 243
285 287 291 318 334 245 159 158 162 171 169 163 161 163 164 164 160 159 163 164 163 161 163 164 167 170 182 182 183 186 180 184 186 172 158 171 185 199 202 212 202 204 197 207 221 222 244 249 244
274 286 306 308 296 285 249 234 174 178 163 159 164 165 166 168 166 165 169 170 168 169 173 176 175 177 184 182 183 191 174 188 186 184 175 181 193 206 219 198 215 216 206 206 211 222 226 243 248
283 300 302 290 282 276 262 256 188 177 171 169 163 161 163 168 172 169 173 175 176 175 176 173 171 175 179 185 191 192 188 192 197 186 189 187 194 205 215 207 216 229 238 225 222 211 235 238 254
288 298 288 282 274 271 262 274 213 180 173 172 163 162 161 167 169 171 174 176 178 176 175 175 170 176 180 190 197 199 202 200 194 188 195 193 199 207 215 205 210 213 232 241 235 245 242 243 253
274 278 272 264 266 262 258 259 237 193 178 162 155 156 160 162 163 164 167 167 175 173 172 172 170 177 182 190 197 202 209 214 210 204 197 201 209 211 211 205 203 214 226 234 225 228 239 250 265
264 274 277 271 259 256 263 253 207 148 143 147 147 149 155 154 156 156 162 167 171 173 174 170 165 176 185 190 198 201 209 216 220 221 214 213 220 216 210 205 194 211 221 229 231 231 236 235 244
260 263 269 280 288 291 281 253 165 148 141 134 136 143 145 151 152 153 161 165 171 176 177 173 169 177 187 191 198 203 207 216 223 226 227 220 222 224 201 186 192 205 215 227 219 226 230 223 237
258 264 278 278 280 284 282 282 178 145 131 137 133 131 137 146 143 150 154 155 163 170 171 176 169 178 189 194 195 202 206 214 221 222 220 233 224 225 204 198 201 207 218 227 223 234 236 230 235
253 270 279 279 284 283 269 258 210 150 149 151 138 124 127 130 137 153 155 158 166 168 159 150 155 179 187 192 204 205 204 211 223 236 231 231 239 235 219 209 214 213 220 229 229 233 234 229 235
251 256 263 276 280 285 283 269 140 144 159 156 129 122 123 120 126 134 148 154 158 154 153 163 160 161 180 198 207 215 205 208 217 224 234 235 241 243 232 224 220 218 223 225 228 238 235 236 241
254 254 262 271 275 281 285 280 139 140 162 137 130 109 107 116 119 120 128 135 148 155 163 172 174 179 182 188 199 209 209 204 215 224 229 233 231 236 235 225 226 227 227 228 230 236 239 235 239
Height
1482 1482 1484 1487 1485 1482 1478 1472 1469 1472 1474 1476 1477 1479 1484 1487 1493 1507 1508 1508 1508 1508 1508 1509 1510 1510 1511 1512 1514 1515 1516 1517 1519 1520 1522 1523 1525 1526 1528 1530 1532 1533 1535 1537 1538 1539 1541 1542 1544
1482 1484 1487 1486 1483 1486 1482 1471 1474 1475 1477 1479 1480 1483 1488 1494 1499 1505 1508 1510 1510 1510 1511 1511 1512 1513 1514 1515 1516 1517 1518 1520 1521 1523 1524 1526 1527 1529 1530 1532 1534 1535 1537 1538 1540 1541 1542 1544 1545
1482 1485 1486 1480 1478 1482 1481 1473 1473 1475 1478 1480 1484 1489 1494 1500 1503 1506 1509 1511 1512 1512 1512 1513 1514 1515 1516 1517 1518 1520 1521 1522 1524 1525 1527 1528 1530 1531 1532 1534 1536 1537 1539 1540 1542 1543 1544 1545 1545
1484 1485 1483 1477 1479 1473 1471 1472 1473 1476 1479 1482 1485 1493 1500 1504 1506 1509 1511 1513 1513 1514 1514 1515 1516 1517 1518 1520 1521 1522 1523 1524 1526 1527 1529 1530 1532 1533 1534 1536 1537 1539 1541 1542 1543 1544 1545 1546 1547
1486 1483 1480 1480 1476 1471 1471 1473 1475 1478 1481 1485 1489 1497 1504 1508 1509 1511 1513 1514 1515 1516 1517 1517 1519 1520 1521 1522 1523 1524 1526 1527 1528 1530 1531 1532 1533 1535 1536 1537 1539 1541 1542 1544 1545 1546 1547 1548 1549
1484 1479 1484 1486 1479 1474 1474 1476 1477 1480 1483 1487 1492 1499 1507 1510 1511 1513 1514 1516 1517 1518 1518 1519 1521 1522 1523 1524 1526 1527 1528 1529 1530 1531 1533 1534 1535 1536 1538 1539 1541 1542 1544 1545 1546 1547 1549 1550 1551
1480 1475 1481 1481 1481 1479 1477 1478 1479 1482 1485 1488 1492 1499 1507 1511 1513 1514 1516 1518 1519 1520 1520 1521 1523 1524 1525 1526 1528 1529 1530 1531 1532 1533 1535 1536 1537 1538 1539 1541 1542 1544 1545 1546 1547 1549 1550 1551 1552
1477 1477 1479 1480 1481 1482 1479 1480 1482 1485 1488 1491 1492 1498 1507 1512 1514 1516 1518 1519 1521 1522 1523 1524 1525 1526 1527 1529 1530 1531 1532 1533 1534 1535 1537 1538 1539 1540 1541 1542 1544 1545 1546 1547 1549 1549 1550 1552 1553
1476 1481 1486 1482 1480 1480 1479 1481 1484 1487 1490 1493 1495 1499 1506 1511 1514 1517 1519 1521 1523 1524 1525 1526 1527 1528 1530 1531 1532 1533 1534 1535 1536 1537 1538 1539 1540 1541 1543 1544 1545 1546 1547 1548 1550 1551 1552 1552 1553
1476 1483 1480 1475 1474 1477 1479 1481 1483 1487 1491 1495 1500 1504 1508 1512 1515 1517 1519 1521 1523 1525 1527 1528 1529 1530 1531 1532 1533 1534 1535 1536 1537 1539 1540 1541 1542 1543 1544 1545 1546 1547 1548 1549 1550 1551 1552 1553 1554
1473 1477 1473 1473 1474 1477 1479 1481 1483 1486 1491 1496 1500 1505 1509 1512 1515 1517 1520 1522 1524 1526 1528 1529 1530 1531 1532 1533 1534 1535 1537 1537 1539 1540 1541 1542 1543 1544 1545 1546 1547 1548 1549 1550 1551 1551 1552 1553 1554
1472 1472 1472 1474 1476 1477 1479 1482 1484 1487 1492 1496 1501 1505 1509 1512 1515 1517 1520 1522 1524 1526 1528 1529 1530 1531 1532 1533 1534 1536 1537 1538 1540 1541 1542 1543 1544 1545 1546 1547 1548 1549 1550 1550 1551 1552 1552 1554 1555
1472 1473 1473 1475 1476 1478 1481 1483 1486 1489 1493 1497 1502 1506 1509 1512 1515 1518 1520 1523 1525 1527 1529 1530 1530 1531 1532 1533 1534 1536 1538 1539 1540 1541 1542 1543 1545 1545 1546 1547 1548 1549 1550 1551 1551 1552 1553 1554 1554
1473 1473 1473 1474 1476 1478 1481 1485 1487 1491 1494 1498 1502 1506 1510 1512 1515 1518 1520 1523 1525 1527 1528 1530 1530 1531 1532 1533 1535 1536 1538 1539 1541 1541 1542 1543 1545 1546 1546 1547 1548 1549 1550 1551 1551 1552 1553 1553 1554
1473 1474 1476 1475 1475 1477 1481 1487 1488 1491 1494 1498 1502 1506 1510 1512 1515 1517 1520 1522 1524 1526 1528 1529 1530 1531 1532 1534 1535 1537 1538 1539 1541 1542 1543 1543 1545 1545 1546 1547 1548 1549 1550 1550 1551 1552 1552 1553 1553
1473 1478 1485 1477 1474 1476 1483 1496 1490 1491 1493 1497 1501 1505 1509 1512 1515 1517 1520 1522 1524 1526 1528 1529 1531 1531 1532 1534 1535 1537 1538 1540 1540 1541 1542 1543 1544 1545 1546 1547 1547 1548 1549 1550 1551 1551 1552 1552 1552
1476 1484 1485 1479 1472 1473 1478 1488 1487 1490 1492 1496 1500 1504 1508 1511 1514 1516 1519 1521 1523 1525 1527 1528 1530 1531 1532 1534 1535 1537 1538 1539 1540 1541 1542 1543 1544 1544 1545 1546 1547 1548 1548 1549 1550 1551 1551 1551 1551
1485 1483 1482 1481 1472 1471 1477 1482 1483 1487 1489 1493 1498 1502 1506 1509 1513 1515 1518 1520 1522 1524 1526 1527 1529 1531 1532 1534 1535 1536 1538 1539 1540 1541 1542 1542 1543 1544 1544 1545 1546 1547 1548 1549 1549 1549 1550 1550 1550
1474 1478 1479 1474 1467 1471 1477 1481 1482 1485 1488 1491 1496 1500 1504 1507 1511 1514 1517 1519 1521 1522 1524 1526 1528 1530 1531 1533 1534 1535 1537 1538 1539 1541 1541 1542 1542 1543 1544 1545 1545 1546 1547 1548 1548 1548 1549 1549 1550
1474 1478 1475 1470 1465 1470 1477 1480 1479 1483 1485 1489 1493 1497 1501 1505 1509 1512 1515 1518 1520 1521 1523 1525 1526 1528 1530 1531 1533 1535 1536 1537 1539 1540 1540 1541 1541 1542 1543 1544 1544 1545 1546 1546 1547 1547 1547 1548 1549
1475 1476 1475 1475 1470 1470 1478 1485 1482 1480 1483 1487 1491 1494 1498 1502 1506 1510 1513 1516 1518 1520 1521 1523 1525 1527 1528 1530 1532 1534 1535 1537 1538 1538 1539 1539 1540 1541 1542 1542 1543 1544 1544 1545 1545 1546 1546 1546 1547
1479 1469 1470 1472 1477 1481 1478 1498 1485 1479 1481 1484 1488 1492 1496 1500 1503 1507 1510 1514 1516 1518 1520 1522 1523 1525 1527 1529 1530 1532 1533 1534 1536 1537 1538 1538 1539 1539 1540 1541 1542 1542 1543 1544 1544 1544 1545 1545 1546
1473 1467 1469 1471 1474 1479 1477 1490 1489 1476 1482 1482 1485 1489 1493 1497 1500 1504 1507 1511 1514 1516 1518 1520 1521 1523 1525 1527 1529 1530 1532 1533 1534 1535 1536 1537 1537 1538 1539 1539 1540 1540 1541 1542 1543 1543 1543 1544 1544
1467 1469 1468 1468 1472 1490 1480 1488 1493 1478 1477 1478 1481 1486 1490 1494 1498 1501 1505 1508 1512 1514 1516 1518 1519 1521 1523 1525 1526 1528 1530 1531 1533 1533 1534 1535 1536 1536 1537 1537 1538 1538 1539 1540 1541 1541 1542 1542 1542
1468 1479 1492 1495 1494 1492 1472 1479 1485 1471 1470 1474 1479 1484 1488 1492 1496 1500 1503 1507 1509 1512 1514 1516 1517 1518 1520 1522 1524 1526 1527 1529 1530 1531 1532 1533 1534 1534 1535 1536 1536 1536 1537 1538 1538 1539 1539 1540 1540
1471 1476 1495 1507 1504 1490 1475 1481 1475 1467 1470 1473 1477 1481 1486 1490 1494 1498 1501 1505 1507 1510 1512 1514 1515 1516 1518 1520 1521 1523 1525 1526 1528 1529 1530 1531 1531 1532 1533 1533 1534 1534 1535 1536 1536 1536 1537 1537 1537
1472 1473 1468 1481 1487 1493 1488 1479 1471 1467 1470 1474 1476 1480 1484 1488 1492 1496 1499 1502 1505 1507 1509 1511 1512 1514 1516 1518 1519 1521 1522 1524 1525 1526 1527 1528 1529 1530 1531 1531 1531 1532 1532 1533 1533 1534 1534 1534 1535
1465 1467 1473 1483 1501 1507 1495 1488 1483 1475 1474 1475 1476 1480 1483 1487 1491 1494 1497 1500 1503 1505 1507 1509 1510 1512 1513 1515 1517 1518 1519 1520 1521 1523 1524 1525 1526 1527 1528 1528 1529 1529 1530 1530 1531 1531 1531 1531 1531
1468 1470 1473 1477 1481 1496 1502 1492 1468 1470 1472 1474 1476 1479 1484 1487 1490 1493 1495 1497 1500 1503 1505 1507 1508 1510 1511 1512 1513 1515 1516 1517 1518 1519 1520 1521 1522 1524 1524 1525 1525 1526 1526 1527 1527 1528 1528 1528 1528
1462 1467 1472 1485 1488 1483 1488 1486 1463 1466 1470 1473 1477 1480 1484 1487 1490 1493 1495 1497 1499 1501 1503 1504 1506 1507 1508 1510 1511 1512 1513 1514 1515 1515 1516 1518 1518 1519 1520 1521 1522 1522 1522 1523 1523 1524 1524 1524 1525